User: anonymous   Login
Location: Unspecified
(0.0000°N, 0.0000°E)
Time: 22:58:10
(UTC+00:00)
Language:

USA 271 - Orbit

View from above orbital plane
View from above orbital plane
View from above satellite
View from above satellite

Ground track
Ground track

The orbit data is extracted from the following two-line orbital elements,

1 41745U 16052B   24157.39037171  .00000007  00000-0  00000+0 0  9991
2 41745   2.2621  86.6808 0000213  38.0811 160.6386  0.99799366 20481
Epoch (UTC): 05 June 2024 09:22:08
Eccentricity: 0.0000213
inclination: 2.2621°
perigee height: 35918 km
apogee height: 35920 km
right ascension of ascending node: 86.6808°
argument of perigee: 38.0811°
revolutions per day: 0.99799366
mean anomaly at epoch: 160.6386°
orbit number at epoch: 2048

The dashed part of the orbit path shows where the satellite is in the earth's shadow,  

DLR